Location: Bella Coola
(52.3721°N, 126.7539°W)
Time: 13:52:44
(UTC-07:00)

ISS - Pass Details

Date: 27 May 2019
Orbit: 408 x 418 km, 51.6° (Epoch: 18 June)

Event Time Altitude Azimuth Distance (km) Brightness Sun altitude
Rises 00:26:44 0° 282° (WNW) 2,362 0.4 -15.3°
Reaches altitude 10° 00:28:59 10° 271° (W) 1,498 -0.8 -15.4°
Maximum altitude 00:31:57 29° 209° (SSW) 790 -2.8 -15.5°
Enters shadow 00:31:59 29° 208° (SSW) 790 -2.8 -15.5°
